Regional Weather Roundup
Issued by NWS

Home | Current Version | Previous Version | Graphics & Text | Print | Product List | Glossary On
Versions: 1 2 3 4 5 6 7 8 9 10 11 12 13 14 15 16 17 18 19 20 21 22 23 24 25 26 27 28 29 30 31 32 33 34 35 36 37 38 39 40 41 42 43 44 45 46 47 48 49 50
000
ASUS43 KLMK 261810
RWRKY
KENTUCKY REGIONAL WEATHER ROUNDUP
NATIONAL WEATHER SERVICE LOUISVILLE KY
200 PM EDT THU APR 26 2018

NOTE "FAIR" INDICATES FEW OR NO CLOUDS BELOW 12,000 FEET
WITH NO SIGNIFICANT WEATHER AND/OR OBSTRUCTIONS TO VISIBILITY.

KYZ001>023-026-027-061>063-070>075-261900-
WESTERN AND SOUTH CENTRAL KENTUCKY

CITY           SKY/WX    TMP DP  RH WIND       PRES   REMARKS
PADUCAH        CLOUDY    60  42  51 NE8       29.90F
HENDERSON      FAIR      65  39  38 NE8       29.91F
OWENSBORO      FAIR      64  38  38 VRB3      29.90F
HOPKINSVILLE   LGT RAIN  57  54  88 N7        29.88F
BOWLING GREEN  CLOUDY    62  52  69 SW5       29.89F
GLASGOW        PTSUNNY   61  51  68 SW5       29.89F
$$

KYZ024-025-028>034-038-045-046-053-261900-
NORTH CENTRAL KENTUCKY

CITY           SKY/WX    TMP DP  RH WIND       PRES   REMARKS
LOUISVILLE/SDF PTSUNNY   66  39  37 CALM      29.88F
LOUISVILLE/LOU FAIR      65  39  38 CALM      29.89F
FORT KNOX      FAIR      65  41  41 S5        29.88F
$$

KYZ035>037-039>044-047>052-055>060-089>105-261900-
NORTHEAST KENTUCKY

CITY           SKY/WX    TMP DP  RH WIND       PRES   REMARKS
LEXINGTON      FAIR      65  46  50 CALM      29.89F
COVINGTON      FAIR      66  37  34 W7        29.88F
FRANKFORT      FAIR      65  38  36 CALM      29.88F
$$

KYZ054-064>069-076>088-106>120-261900-
SOUTHEAST KENTUCKY

CITY           SKY/WX    TMP DP  RH WIND       PRES   REMARKS
JACKSON        FAIR      63  45  51 VRB5      29.89F
LONDON         FAIR      60  47  61 CALM      29.90F
SOMERSET       PTSUNNY   59  45  58 S5        29.91F
MIDDLESBORO    RAIN      58  48  67 CALM      29.92F
MONTICELLO     NOT AVBL
$$





USA.gov is the U.S. government's official web portal to all federal, state and local government web resources and services.